This is the latest recevied weather packets stored in our database for station/object WA6OOO. If no packets are shown the sender has not sent any weather packets the latest 10 day(s).
| Time | Temp. | Humidity | Pressure | Rain* | Wind** | Luminosity | Snow |
|---|---|---|---|---|---|---|---|
| 1777851956 | 18.33° C | 61% | 1015.9 hPa | 0 mm | - | 223 W/m² | - |
| 1777851654 | 18.89° C | 60% | 1016.2 hPa | 0 mm | - | 502 W/m² | - |
| 1777851351 | 18.89° C | 58% | 1015.9 hPa | 0 mm | - | 461 W/m² | - |
| 1777851047 | 18.89° C | 57% | 1015.9 hPa | 0 mm | - | 494 W/m² | - |
| 1777850744 | 18.33° C | 58% | 1016.1 hPa | 0 mm | - | 548 W/m² | - |
| 1777850441 | 18.89° C | 59% | 1016.2 hPa | 0 mm | - | 583 W/m² | - |
| 1777850139 | 18.33° C | 57% | 1016.2 hPa | 0 mm | - | 580 W/m² | - |
| 1777849835 | 18.33° C | 57% | 1016.2 hPa | 0 mm | - | 663 W/m² | - |
| 1777849532 | 18.33° C | 59% | 1016.3 hPa | 0 mm | - | 498 W/m² | - |
| 1777849230 | 18.33° C | 59% | 1016.4 hPa | 0 mm | - | 498 W/m² | - |
| 1777848926 | 18.33° C | 59% | 1016.2 hPa | 0 mm | - | 498 W/m² | - |
| 1777848621 | 18.33° C | 59% | 1016.5 hPa | 0 mm | - | 498 W/m² | - |
| 1777848320 | 18.33° C | 59% | 1016.4 hPa | 0 mm | - | 498 W/m² | - |
| 1777848017 | 18.33° C | 59% | 1016.2 hPa | 0 mm | - | 498 W/m² | - |
| 1777847715 | 18.33° C | 59% | 1016.4 hPa | 0 mm | - | 498 W/m² | - |
| 1777847410 | 18.33° C | 59% | 1016.5 hPa | 0 mm | - | 498 W/m² | - |
| 1777847109 | 18.33° C | 59% | 1016.7 hPa | 0 mm | - | 498 W/m² | - |
| 1777846806 | 18.89° C | 60% | 1016.8 hPa | 0 mm | - | 379 W/m² | - |
| 1777846504 | 18.33° C | 60% | 1016.8 hPa | 0 mm | - | 473 W/m² | - |
| 1777846201 | 18.33° C | 60% | 1016.8 hPa | 0 mm | - | 336 W/m² | - |
| 1777845897 | 18.33° C | 60% | 1016.9 hPa | 0 mm | - | 328 W/m² | - |
| 1777845594 | 18.33° C | 59% | 1016.9 hPa | 0 mm | - | 367 W/m² | - |
| 1777845291 | 18.33° C | 59% | 1016.8 hPa | 0 mm | - | 377 W/m² | - |
| 1777844989 | 18.89° C | 59% | 1016.9 hPa | 0 mm | - | 440 W/m² | - |
| 1777844687 | 18.33° C | 60% | 1016.8 hPa | 0 mm | - | 396 W/m² | - |
* Rain latest hour (hover to see other rain measurements)
** Current wind speed in m/s (hover to see current wind gust speed)